www.pogodaiklimat.ru

Погода и климат >> Архив погоды >> Россия >> Камчатский край >> Оссора


АРХИВ ПОГОДЫ в Оссоре

Время (UTC), дата Ветер
(напр.,м/с)
 
Видим.   Явления Облачность Т
(С)
Тd
(С)
f
(%)
Тe
(С)
Тes
(С)
Комфортность P
(гПа)
Po
(гПа)
Тmin
(С)
Tmax
(С)
R
(мм)
R24
(мм)
S
(см)
21 16.05 ЮЗ 2 20 км 10/0
[Ci fib]
+4.4 -0.8 69 +2 +7 1022.8 1021.9 -3.7
00 17.05 Ю 3 20 км 10/0
[Ci fib]
+7.4 +0.6 62 +5 +5 1023.6 1022.7
03 17.05 Ю 4 50 км 10/0
[Ac lent Ci fib]
+9.5 +0.9 55 +7 +7 1022.2 1021.3
06 17.05 Ю 4 50 км 10/0
[Cs]
+8.4 +0.1 56 +6 +6 1020.9 1020.0
09 17.05 ЮЗ 3 50 км 10/5 1000 м
[Sc diur, vesp Ac lent Ci fib]
+5.3 -0.3 67 +2 +2 1019.6 1018.7 +9.5
12 17.05 ЮЗ 3 20 км 10/0
[Ac lent Ci fib]
+5.3 -0.3 67 +2 +2 1019.6 1018.7
15 17.05 штиль 0 20 км 10/0
[Ac lent Cs]
+3.1 -5.3 54 +3 +3 1018.2 1017.3
18 17.05 штиль 0 50 км 10/0
[Ci fib]
+0.9 -3.9 70 0 0 1018.2 1017.3
21 17.05 штиль 0 50 км 10/0
[Ac lent Ci fib]
+5.6 -3.3 53 +5 +10 1016.7 1015.8 -0.3
00 18.05 штиль 0 50 км 6/0
[Ac trans Ci fib]
+12.1 -3.7 33 +12 +19 1016.9 1016.0
03 18.05 З 8-13
{13}
50 км 10/0
[Ac trans Ci fib]
+15.1 -5.0 25 +13 +15 1014.1 1013.2
06 18.05 З 6-10
{13}
50 км 10/0
[Ac trans Ci fib]
+13.1 -6.0 26 +11 +12 1013.9 1013.0
09 18.05 штиль 0
{11}
50 км 10/0 1000 м
[Sc]
+8.2 +0.7 59 +8 +8 1015.6 1014.7 +15.4
12 18.05 штиль 0 н/о н/о +6.5 +1.0 68 +6 +6 1015.6 1014.7
15 18.05 ЮЗ 3 20 км 10/10 1000 м
[Sc]
+7.9 -1.6 51 +6 +6 1015.6 1014.7
18 18.05 штиль 0 50 км 10/6 1000 м
[Sc Ac trans Ci fib]
+3.7 -2.1 66 +3 +3 1015.6 1014.7
21 18.05 В 2 50 км 6/0
[Ac trans Ci fib]
+7.7 +0.6 61 +6 +11 1014.1 1013.2 +3.2
00 19.05 СВ 1 50 км 10/0
[Ci]
+10.4 -0.7 46 +11 +11 1014.2 1013.3
03 19.05 ЮВ 1 50 км 10/0
[Ci]
+10.1 -0.4 48 +10 +10 1012.9 1012.0
06 19.05 Ю 4 50 км 10/0
[As trans Cs]
+9.5 +0.4 53 +7 +7 1008.9 1008.0
09 19.05 штиль 0 50 км 10/0
[As trans]
+7.0 +0.7 64 +6 +6 1006.2 1005.3 +10.9
12 19.05 Ю 1 20 км слаб. ливневой дождь 10/10 300 м
[Cb cap]
+5.3 +1.6 77 +4 +4 1003.0 1002.2
15 19.05 В 3 10 км слаб. ливневой дождь 10/10 300 м
[Cb cap]
+4.1 +2.0 86 0 0 1002.2 1001.3
18 19.05 СЗ 1 10 км слаб. ливневой дождь 10/10 300 м
[Cb cap]
+3.4 +1.8 89 +2 +2 1000.9 1000.0
21 19.05 СВ 1 20 км {ливн. осадки} 10/10 300 м
[St]
+5.2 +2.1 80 +4 +4 1000.7 999.8 +3.3 4
00 20.05 СВ 5
{10}
50 км {ливн. осадки} 10/5 600 м
[Sc Ac trans Ci fib]
+8.7 +3.1 68 +5 +7 1001.3 1000.5
03 20.05 СВ 5
{10}
10 км слаб. морось 10/10 200 м
[St]
+4.7 +2.6 86 -0 -0 1002.9 1002.0
06 20.05 СВ 5
{11}
20 км слаб. морось 10/10 200 м
[St]
+3.9 +2.3 89 -1 -1 1004.3 1003.4
09 20.05 С 4 10 км слаб. морось 10/10 200 м
[St]
+3.5 +2.6 94 -1 -1 1007.6 1006.7 +9.1 0.4
12 20.05 СВ 5 10 км слаб. морось 10/10 200 м
[St]
+3.1 +1.5 89 -2 -2 1009.4 1008.6
15 20.05 СВ 5
{11}
10 км слаб. морось 10/10 200 м
[St]
+2.3 +1.3 93 -3 -3 1013.2 1012.3
18 20.05 СВ 5
{10}
10 км слаб. морось 10/10 200 м
[St]
+1.9 +0.2 88 -4 -4 1016.5 1015.6
21 20.05 СВ 4 20 км слаб. дождь {морось} 10/6 300 м
[Frnb As op]
+2.7 +1.2 90 -2 -2 1020.9 1020.0 +1.4 3
00 21.05 В 4 20 км слаб. дождь {морось} 10/10 300 м
[Frnb Ns]
+4.2 +0.4 76 0 0 1021.7 1020.8
03 21.05 В 4 50 км {дождь} 10/6 600 м
[Sc Ac trans Ci fib]
+5.1 +0.5 72 +1 +1 1023.6 1022.7
06 21.05 В 3 50 км {дождь} 3/3 600 м
[Sc]
+5.0 -0.8 66 +2 +5 1024.9 1024.0
09 21.05 Ю 3 20 км 3/3 600 м
[Sc]
+3.9 -0.7 72 0 +1 1024.9 1024.0 +5.6 0.0
12 21.05 ЮЗ 2 20 км 3/3 600 м
[Sc]
+1.1 -0.7 88 -2 -2 1024.9 1024.0
15 21.05 штиль 0 20 км ясно -1.4 -2.7 91 -3 -3 1026.2 1025.3
18 21.05 З 1 20 км ясно -0.8 -2.2 90 -3 -2 1024.9 1024.0
21 21.05 ЮЗ 2 20 км ясно +5.3 +0.6 72 +3 +9 1024.9 1024.1 -2.0
00 22.05 штиль 0 50 км ?/? +8.1 +0.1 57 +8 +8 1025.0 1024.1
03 22.05 Ю 5 20 км 10/0
[Ac trans Ci fib]
+8.2 +0.7 59 +5 +5 1026.2 1025.3
06 22.05 ЮВ 4 50 км 10 баллов +6.3 +1.4 71 +3 +3 1026.2 1025.3
09 22.05 ЮЗ 2 20 км 10/3 1000 м
[Sc Ac trans Ci fib]
+4.4 +0.9 78 +2 +2 1026.2 1025.3 +8.8
12 22.05 З 2 20 км 6/3 600 м
[Sc Ac trans Ci fib]
+2.6 +0.7 87 -1 -1 1026.2 1025.3
15 22.05 ЮЗ 2 20 км 6/3 600 м
[Sc Ac trans Ci fib]
+2.2 +0.7 90 -1 -1 1026.2 1025.3
18 22.05 ЮЗ 1 н/о н/о +2.6 +1.1 90 +1 +1 1024.9 1024.0
21 22.05 ЮЗ 4 20 км 10/10 300 м
[St]
+3.4 +1.0 84 -1 -1 1023.5 1022.6 +1.3
00 23.05 Ю 4 20 км 10/10 300 м
[St]
+4.6 +1.1 78 +1 +1 1023.6 1022.7
03 23.05 Ю 2 20 км 10 баллов +4.9 +1.2 77 +2 +2 1020.9 1020.0
06 23.05 штиль 0 20 км 10 баллов +4.3 +1.2 80 +3 +3 1018.2 1017.3
09 23.05 ЮВ 2 20 км 10/10 200 м
[St]
+4.0 +1.5 84 +1 +1 1016.9 1016.0 +4.9
12 23.05 Ю 3 10 км 10 баллов +3.5 +1.4 86 -0 -0 1015.6 1014.7
15 23.05 штиль 0 10 км 10 баллов +3.5 +1.4 86 +2 +2 1015.6 1014.7

 

Местоположение метеостанции Оссора (Камчатский край, Россия): широта 59.23 долгота 163.00 высота над уровнем моря 7 м.

В архиве по умолчанию представлена погода в Оссоре за последнюю неделю. Архивные данные за месяц целиком и за предыдущие месяцы, начиная с января 2011 года, Вы можете получить, выбрав интересующий диапазон дат из раскрывающегося списка и нажав кнопку "Ввод!".


*Определитесь, кто Вы:
робот инопланетянин человек

Внимание! Время в таблицах - всемирное. Для получения местного времени необходимо прибавить поправку, которая равна 12 ч.

Смотрите также архив погоды в соседних городах и на ближайших метеорологических станциях:

Погода в Чемурнауте (Камчатский край, Россия) (167 км)
Погода на Мысе Озерном (Камчатский край, Россия) (176 км)
Погода в Палане (Камчатский край, Россия) (178 км)
Погода в Тиличиках (Камчатский край, Россия) (214 км)
Погода в Усть-Воямполке (Камчатский край, Россия) (238 км)
Погода в Тигиле (Камчатский край, Россия) (304 км)
Погода в Усть-Камчатске (Камчатский край, Россия) (335 км)
Погода на Мысе Африка (Камчатский край, Россия) (340 км)
Погода в Ключах (Камчатский край, Россия) (349 км)
Погода в Эвенске (Магаданская область, Россия) (364 км)

Пояснения к столбцам:

Ветер - указаны скорость ветра в м/с - средняя за 10 мин, порывы в срок и между сроками (в фигурных скобках) и направление, откуда дует ветер: С - северный, СВ - северо-восточный, В - восточный, ЮВ - юго-восточный, Ю - южный, ЮЗ - юго-западный, З - западный, СЗ - северо-западный.
Видимость - горизонтальная дальность видимости в метрах или километрах. При видимости от 1 до 10 км при отсутствии осадков обычно наблюдается дымка, при ухудшении видимости до 1 км и менее - туман. В сухую погоду видимость может ухудшаться дымом, пылью или мглою.
Явления - указаны атмосферные явления, наблюдавшиеся в срок или в последний час перед сроком; фигурными скобками обозначены явления, наблюдавшиеся между сроками (за 1-3 часа до срока); квадратными скобками обозначены град или гололедные отложения с указанием их диаметра в мм.
Облачность - указаны через наклонную черту общая и нижняя облачность в баллах и высота нижней границы облаков в метрах; квадратными скобками обозначены формы облаков: Ci - перистые, Cs - перисто-слоистые, Cc - перисто-кучевые, Ac - высококучевые, As - высокослоистые, Sc - слоисто-кучевые, Ns - слоисто-дождевые, Cu - кучевые, Cb - кучево-дождевые. Подробнее классификацию облаков см. в Атласе облаков (PDF).
T - Температура воздуха - температура, измеренная на высоте 2 м над землей.
Td - Температура точки росы - температура, при понижении до которой содержащийся в воздухе водяной пар достигнет насыщения.
f - Относительная влажность воздуха - влажноcть воздуха, измеренная на высоте 2 м над землей.
Te - Эффективная температура - температура, которую ощущает одетый по сезону человек в тени. Характеристика душности погоды. При расчете учитывается влияние влажности воздуха и скорости ветра на теплоощущения человека.
Tes - Эффективная температура на солнце - температура, которую ощущает человек, с поправкой на солнечный нагрев. Характеристика знойности погоды. Зависит от высоты солнца над горизонтом, облачности и скорости ветра. Ночью, в пасмурную погоду, а также при ветре 12 м/с и более поправка равна нулю.
P - Атмосферное давление - приведенное к уровню моря атмосферное давление.
Po - Атмосферное давление - измеренное на уровне метеостанции атмосферное давление.
Tmin - Минимальная температура - минимум температуры воздуха на высоте 2 м над землей.
Tmax - Максимальная температура - максимум температуры воздуха на высоте 2 м над землей.
R - Количество осадков - Количество выпавших осадков за период времени, мм. При наведении курсора мыши на число - период времени, за который выпало указанное количество осадков.
R24 - Количество осадков - Количество выпавших осадков за 24 часа, мм.
S - Снежный покров - Высота снежного покрова, см. При наведении курсора мыши на число - состояние снежного покрова и степень покрытия местности в баллах.